View from above orbital plane
|
View from above satellite
|
Ground track
|
The orbit data is extracted from the following two-line orbital elements,
1 33493U 09002B 21015.58326814 .00000093 00000-0 13567-4 0 9997
2 33493 98.1696 330.9794 0016084 72.9444 287.3538 14.97376608651444
Epoch (UTC): | 15 January 2021 13:59:54 |
Eccentricity: | 0.0016084 |
inclination: | 98.1696° |
perigee height: | 564 km |
apogee height: | 586 km |
right ascension of ascending node: | 330.9794° |
argument of perigee: | 72.9444° |
revolutions per day: | 14.97376608 |
mean anomaly at epoch: | 287.3538° |
orbit number at epoch: | 65144 |
The dashed part of the orbit path shows where the satellite is in the earth's shadow,
|
|